Tracking 28081 objects as of 27-Sep-2023
HD Live streaming from Space Station
objects crossing your sky now

FENGYUN 1C DEB

Track FENGYUN 1C DEB now!
10-day predictions


NORAD ID: 30570
Int'l Code: 1999-025ALL
Perigee: 834.0 km
Apogee: 886.0 km
Inclination: 98.8 °
Period: 102.0 minutes
Semi major axis: 7231 km
RCS: 0.044 m2 (small)
Launch date: May 10, 1999
Source: People's Republic of China (PRC)
Launch site: Taiyaun Space Center, China (TSC)

Note: This is SATELLITE DEBRIS
Your satellite tracking list
Your tracking list is empty




NASA's NSSDC Master Catalog

Two Line Element Set (TLE):
1 30570U 99025ALL 23269.60886934  .00001205  00000-0  67947-3 0  9990
2 30570  98.8077 308.2874 0035984 353.6889 157.7825 14.11900998855835
Source of the keplerian elements: AFSPC